This demonstration page uses our WeatherBlox Daily Observations layout. Learn more.

41.55636, -103.73856

Hourly Observations for January 6, 2018

Temp ( °F °C ) Dew Point ( °F °C ) Humidity (%) Winds ( mph kmh ) Pressure ( in mb ) Visibility ( mi km ) Precip ( " mm )
12:53 am 00:53 Hazy 17 -8.3 11 -11.7 77 77 NE 3 6 30.21 1023 4 6.437376 0 0
1:16 am 01:16 Hazy 21 -6 12 -11 68 68 S 3 6 30.36 1028 4 6.437376 0 0
1:20 am 01:20 Mostly Cloudy with Haze 28 -2 12 -11 51 51 SSE 3 6 30.27 1025 2.5 4.02336 0 0
1:25 am 01:25 Mostly Cloudy with Haze 19 -7.2 12 -11.1 74 74 SE 3 6 30.36 1028 0.75 1.207008 0 0
1:33 am 01:33 Mostly Cloudy with Haze 25 -3.9 14 -10 63 63 S 3 6 30.3 1026 0 0 0 0
1:53 am 01:53 Mostly Cloudy with Haze 21 -6.1 14 -10 74 74 SSE 3 6 30.21 1023 0.25 0.402336 0 0
2:53 am 02:53 Mostly Cloudy with Haze 17 -8.3 12 -11.1 80 80 Calm 30.21 1023 0.25 0.402336 0 0
3:08 am 03:08 Mostly Cloudy with Haze 18 -7.8 13 -10.6 81 81 Calm 30.39 1029 0.25 0.402336 0 0
3:53 am 03:53 Mostly Cloudy with Haze 16 -8.9 11 -11.7 80 80 Calm 30.18 1022 0.25 0.402336 0 0
4:29 am 04:29 Mostly Cloudy with Freezing Fog 15 -9.4 11 -11.7 84 84 NNE 3 6 30.36 1028 0.25 0.402336 0 0
4:53 am 04:53 Mostly Cloudy with Freezing Fog 14 -10 10 -12.2 84 84 NE 3 6 30.21 1023 0.25 0.402336 0 0
5:09 am 05:09 Mostly Cloudy with Haze 14 -10 9 -12.8 80 80 Calm 30.39 1029 0.25 0.402336 0 0
5:31 am 05:31 Mostly Cloudy with Freezing Fog 14 -10 10 -12.2 84 84 Calm 30.39 1029 0.25 0.402336 0 0
5:46 am 05:46 Mostly Cloudy with Freezing Fog 14 -10 10 -12.2 84 84 Calm 30.39 1029 0.25 0.402336 0 0
5:53 am 05:53 Mostly Cloudy with Haze 14 -10 9 -12.8 80 80 Calm 30.21 1023 0.25 0.402336 0 0
6:47 am 06:47 Mostly Cloudy with Haze 14 -10 9 -13 79 79 WNW 5 7 30.39 1029 1 1.609344 0 0
6:53 am 06:53 Mostly Cloudy with Haze 13 -10.6 8 -13.3 81 81 NW 6 9 30.21 1023 2.5 4.02336 0 0
7:00 am 07:00 Hazy 14 -10 7 -14 73 73 NW 5 7 30.39 1029 3 4.828032 0 0
7:22 am 07:22 Hazy 16 -9 9 -13 73 73 WNW 6 9 30.36 1028 2.5 4.02336 0 0
7:36 am 07:36 Hazy 14 -10 8 -13.3 77 77 NW 7 11 30.39 1029 3 4.828032 0 0
7:45 am 07:45 Hazy 15 -9.4 9 -12.8 77 77 WNW 5 7 30.36 1028 2.5 4.02336 0 0
7:53 am 07:53 Hazy 15 -9.4 9 -12.8 77 77 NW 5 7 30.21 1023 3 4.828032 0 0
8:53 am 08:53 Hazy 19 -7.2 11 -11.7 71 71 Calm 30.21 1023 3 4.828032 0 0
9:53 am 09:53 Hazy 25 -3.9 14 -10 63 63 Calm 30.15 1021 4 6.437376 0 0
10:53 am 10:53 Hazy 38 3.3 15 -9.4 39 39 E 5 7 30.09 1019 5 8.04672 0 0
11:53 am 11:53 Hazy 32 0 18 -7.8 56 56 Calm 30.09 1019 5 8.04672 0 0
12:53 pm 12:53 Hazy 43 6.1 20 -6.7 40 40 S 5 7 30.03 1017 5 8.04672 0 0
1:53 pm 13:53 Hazy 33 0.6 21 -6.1 61 61 Calm 30 1016 5 8.04672 0 0
2:53 pm 14:53 Hazy 41 5 21 -6.1 45 45 S 3 6 29.97 1015 6 9.656064 0 0
3:53 pm 15:53 Hazy 36 2.2 21 -6.1 55 55 SE 3 6 29.97 1015 6 9.656064 0 0
4:53 pm 16:53 Hazy 34 1.1 20 -6.7 56 56 ESE 6 9 29.97 1015 6 9.656064 0 0
5:53 pm 17:53 Hazy 29 -1.7 19 -7.2 66 66 E 7 11 29.97 1015 5 8.04672 0 0
6:53 pm 18:53 Hazy 28 -2.2 20 -6.7 72 72 E 5 7 29.97 1015 6 9.656064 0 0
7:53 pm 19:53 Hazy 29 -1.7 22 -5.6 75 75 Calm 29.97 1015 5 8.04672 0 0
8:53 pm 20:53 Hazy 30 -1.1 22 -5.6 72 72 WNW 3 6 29.94 1014 5 8.04672 0 0
9:53 pm 21:53 Cloudy with Haze 32 0 23 -5 69 69 NNW 5 7 29.91 1013 6 9.656064 0 0
10:53 pm 22:53 Hazy 33 0.6 22 -5.6 64 64 NNW 6 9 29.88 1012 6 9.656064 0 0
11:53 pm 23:53 Mostly Cloudy with Haze 31 -0.6 23 -5 72 72 Calm 29.91 1013 6 9.656064 0 0

Powered by AerisWeather